Verplanck, New York
Current Conditions -  °F | °C
As of 4:56 AM on Saturday 22 Nov 2014 (Local Time) from KHPN Reporting Station
Clear Clear  
Wind Chill: 24°   Ceiling: Unl
Heat Index: 24°   Visibility: 10mi
Dew Point: 10°   Wind: 3mph
Humidity: 55%   Direction: 290°WNW
Pressure: 30.44"   Gusts: NA
Location:  41.25°N, 73.96°W
Report Text: KHPN 220956Z 29003KT 10SM CLR M04/M12 A3044 RMK AO2 SLP317 T10441122
Loading
Personal Weather Stations






























Interactive Weather Map New forecast layout! Learn more

10-Day Weather Forecast

Advertisements
Track Severe Weather on mobile